Sauk Centre, MN

7:45 AM CST on December 15, 2019 (GMT -0600)
Sauk Centre

Weather History for KD39 - September, 2019

Change the Weather History Date:

Friday, September 27, 2019

  Actual Average (KGHW) Record (KGHW)
Temperature  
Mean Temperature 50 °F -  
Max Temperature 59 °F 67 °F 95 °F (1956)
Min Temperature 42 °F 43 °F 28 °F (1991)
Degree Days  
Heating Degree Days 14    
Moisture  
Dew Point 47 °F    
Average Humidity 83    
Maximum Humidity 100    
Minimum Humidity 67    
Precipitation  
Precipitation 0.08 in - - ()
Sea Level Pressure  
Sea Level Pressure 29.73 in    
Wind  
Wind Speed 8 mph ()    
Max Wind Speed 14 mph    
Max Gust Speed 21 mph    
Visibility 9.9 miles    
Events Rain    
Averages and records for this station are not official NWS values.
T = Trace of Precipitation, MM = Missing Value Source: Averaged Metar Reports

Daily Weather History Graph

Daily Weather History Graph

Search for Another Location

Airport or City:

Astronomy

Sep. 27, 2019 Rise Set
Actual Time 7:12 AM CDT 7:07 PM CDT
Civil Twilight 6:43 AM CDT 7:37 PM CDT
Nautical Twilight 6:08 AM CDT 8:12 PM CDT
Astronomical Twilight 5:33 AM CDT 8:47 PM CDT
Moon 5:26 AM CDT (9/27) 7:05 PM CDT (9/27)
Length of Visible Light 12h 54m
Length of Day
11h 55m
Waning Crescent, 2% of the Moon is Illuminated
Sep 27
Waning Crescent
Sep 28
New
Oct 5
First Quarter
Oct 13
Full
Oct 21
Last Quarter

Hourly Weather History & Observations

Time (CDT) Temp. Windchill Dew Point Humidity Pressure Visibility Wind Dir Wind Speed Gust Speed Precip Events Conditions
12:59 AM 59.0 °F - 48.2 °F 67% 29.52 in 10.0 mi SSW 12.7 mph 18.4 mph N/A   Overcast
1:59 AM 57.2 °F - 50.0 °F 77% 29.55 in 10.0 mi SW 13.8 mph 19.6 mph N/A Rain Rain
2:59 AM 55.4 °F - 51.8 °F 88% 29.52 in 10.0 mi SSW 6.9 mph - N/A   Mostly Cloudy
3:59 AM 55.4 °F - 51.8 °F 88% 29.54 in 10.0 mi SW 9.2 mph - N/A Rain Rain
4:59 AM 55.4 °F - 51.8 °F 88% 29.58 in 10.0 mi West 11.5 mph 20.7 mph N/A   Drizzle
5:59 AM 53.6 °F - 51.8 °F 94% 29.56 in 7.0 mi Calm Calm - 0.06 in Rain Rain
6:59 AM 51.8 °F - 51.8 °F 100% 29.58 in 10.0 mi West 4.6 mph - 0.02 in   Overcast
7:59 AM 51.8 °F - 51.8 °F 100% 29.62 in 10.0 mi WSW 4.6 mph - N/A   Clear
8:59 AM 53.6 °F - 51.8 °F 94% 29.64 in 10.0 mi WSW 5.8 mph - N/A   Clear
9:59 AM 53.6 °F - 51.8 °F 94% 29.67 in 10.0 mi WNW 10.4 mph - N/A   Scattered Clouds
11:59 AM 55.4 °F - 46.4 °F 72% 29.71 in 10.0 mi WNW 10.4 mph - N/A   Mostly Cloudy
12:59 PM 53.6 °F - 46.4 °F 77% 29.72 in 10.0 mi NW 12.7 mph - N/A   Overcast
1:59 PM 51.8 °F - 44.6 °F 76% 29.75 in 10.0 mi NW 11.5 mph 16.1 mph N/A   Overcast
2:59 PM 51.8 °F - 44.6 °F 76% 29.77 in 10.0 mi NW 10.4 mph - N/A   Overcast
3:59 PM 51.8 °F - 44.6 °F 76% 29.79 in 10.0 mi NW 11.5 mph - N/A   Overcast
4:59 PM 51.8 °F - 44.6 °F 76% 29.82 in 10.0 mi WNW 8.1 mph - N/A   Overcast
5:59 PM 51.8 °F - 44.6 °F 76% 29.85 in 10.0 mi NW 11.5 mph - N/A   Overcast
6:59 PM 50.0 °F - 44.6 °F 82% 29.89 in 10.0 mi NNW 9.2 mph - N/A   Overcast
7:59 PM 50.0 °F - 42.8 °F 76% 29.92 in 10.0 mi NNW 11.5 mph 16.1 mph N/A   Overcast
8:59 PM 48.2 °F - 41.0 °F 76% 29.95 in 10.0 mi NW 9.2 mph - N/A   Overcast
9:59 PM 44.6 °F 42.2 °F 41.0 °F 87% 29.95 in 10.0 mi NNW 4.6 mph - N/A   Clear
10:59 PM 42.8 °F 38.6 °F 39.2 °F 87% 29.97 in 10.0 mi NNW 6.9 mph - N/A   Clear
11:59 PM 42.8 °F 40.1 °F 39.2 °F 87% 29.99 in 10.0 mi NNW 4.6 mph - N/A   Clear